Location: St. Louis
(38.6270°N, 90.1994°W)
Time: 05:29:41
(UTC-06:00)

A-11 Canister half - Pass Details

Date: 30 November 2021
Orbit: 1524 x 1684 km, 47.3° (Epoch: 22 January)

Event Time Altitude Azimuth Distance (km) Brightness Sun altitude
Exits shadow 02:40:03 39° 60° (ENE) 2,322 10.0 -49.9°
Drops below altitude 10° 02:45:33 10° 60° (ENE) 3,893 11.6 -48.8°
Sets 02:48:39 0° 60° (ENE) 4,863 12.3 -48.2°
